Ludington, MI

7:29 PM EDT on September 20, 2019 (GMT -0400)
Mason County

Weather History for KLDM - August, 2019

Change the Weather History Date:

Thursday, August 22, 2019

  Actual Average Record
Temperature  
Mean Temperature 60 °F -  
Max Temperature 70 °F 77 °F 88 °F (1968)
Min Temperature 49 °F 55 °F 40 °F (1958)
Degree Days  
Heating Degree Days 6    
Growing Degree Days 10 (Base 50)    
Moisture  
Dew Point 51 °F    
Average Humidity 72    
Maximum Humidity 97    
Minimum Humidity 44    
Precipitation  
Precipitation 0.00 in - - ()
Sea Level Pressure  
Sea Level Pressure 30.06 in    
Wind  
Wind Speed 3 mph (North)    
Max Wind Speed 14 mph    
Max Gust Speed 18 mph    
Visibility 10 miles    
Events      
Averages and records for this station are not official NWS values.
T = Trace of Precipitation, MM = Missing Value Source: NWS Daily Summary

Daily Weather History Graph

Daily Weather History Graph

Search for Another Location

Airport or City:

Astronomy

Aug. 22, 2019 Rise Set
Actual Time 6:57 AM EDT 8:38 PM EDT
Civil Twilight 6:26 AM EDT 9:09 PM EDT
Nautical Twilight 5:49 AM EDT 9:46 PM EDT
Astronomical Twilight 5:09 AM EDT 10:26 PM EDT
Moon No Moon Rise 1:45 PM EDT (8/22)
Length of Visible Light 14h 42m
Length of Day
13h 41m
Waning Gibbous, 60% of the Moon is Illuminated
Aug 22
Waning Gibbous
Aug 23
Last Quarter
Aug 30
New
Sep 5
First Quarter
Sep 14
Full

Hourly Weather History & Observations

Time (EDT) Temp. Dew Point Humidity Pressure Visibility Wind Dir Wind Speed Gust Speed Precip Events Conditions
12:17 AM 61.7 °F 56.7 °F 84% 29.99 in 10.0 mi NNE 4.6 mph - N/A   Clear
12:35 AM 61.5 °F 56.1 °F 82% 29.99 in 10.0 mi Calm Calm - N/A   Clear
12:55 AM 60.8 °F 55.6 °F 83% 30.00 in 10.0 mi NE 3.5 mph - N/A   Clear
12:56 AM 60.8 °F 55.4 °F 82% 30.00 in 10.0 mi Calm Calm - N/A   Clear
1:15 AM 60.8 °F 54.7 °F 80% 30.00 in 10.0 mi Calm Calm - N/A   Clear
1:20 AM 60.4 °F 54.5 °F 81% 30.00 in 10.0 mi NE 3.5 mph - N/A   Clear
1:38 AM 59.9 °F 53.6 °F 80% 30.00 in 10.0 mi NE 3.5 mph - N/A   Clear
1:55 AM 59.5 °F 53.1 °F 79% 30.01 in 10.0 mi Calm Calm - N/A   Clear
2:15 AM 58.8 °F 53.1 °F 81% 30.02 in 10.0 mi Calm Calm - N/A   Scattered Clouds
2:16 AM 58.6 °F 53.1 °F 82% 30.02 in 10.0 mi Calm Calm - N/A   Scattered Clouds
2:35 AM 58.1 °F 52.7 °F 82% 30.01 in 10.0 mi Calm Calm - N/A   Mostly Cloudy
2:59 AM 55.2 °F 52.5 °F 91% 30.02 in 10.0 mi Calm Calm - N/A   Scattered Clouds
3:17 AM 54.9 °F 53.2 °F 94% 30.02 in 10.0 mi Calm Calm - N/A   Mostly Cloudy
3:35 AM 54.5 °F 52.3 °F 92% 30.02 in 10.0 mi Calm Calm - N/A   Mostly Cloudy
3:36 AM 54.3 °F 52.0 °F 92% 30.02 in 10.0 mi Calm Calm - N/A   Mostly Cloudy
3:55 AM 53.2 °F 52.2 °F 96% 30.02 in 10.0 mi Calm Calm - N/A   Scattered Clouds
3:56 AM 53.4 °F 52.5 °F 97% 30.01 in 10.0 mi Calm Calm - N/A   Scattered Clouds
4:15 AM 52.7 °F 52.0 °F 97% 30.02 in 10.0 mi Calm Calm - N/A   Scattered Clouds
4:38 AM 50.5 °F 49.8 °F 97% 30.01 in 10.0 mi Calm Calm - N/A   Clear
4:56 AM 51.3 °F 50.5 °F 97% 30.01 in 10.0 mi Calm Calm - N/A   Scattered Clouds
5:35 AM 52.0 °F 51.1 °F 97% 30.01 in 10.0 mi Calm Calm - N/A   Overcast
5:36 AM 52.0 °F 51.3 °F 97% 30.01 in 10.0 mi Calm Calm - N/A   Overcast
5:59 AM 53.2 °F 52.0 °F 95% 30.02 in 10.0 mi Calm Calm - N/A   Mostly Cloudy
6:17 AM 52.7 °F 51.8 °F 97% 30.02 in 10.0 mi Calm Calm - N/A   Scattered Clouds
6:35 AM 51.4 °F 50.5 °F 97% 30.03 in 10.0 mi Calm Calm - N/A   Scattered Clouds
6:55 AM 50.4 °F 49.6 °F 97% 30.04 in 10.0 mi Calm Calm - N/A   Clear
6:56 AM 50.5 °F 49.8 °F 97% 30.04 in 10.0 mi Calm Calm - N/A   Clear
7:15 AM 49.1 °F 48.4 °F 97% 30.04 in 1.5 mi Calm Calm - N/A   Mist
7:20 AM 49.5 °F 48.7 °F 97% 30.04 in 1.5 mi Calm Calm - N/A   Mist
7:38 AM 49.5 °F 48.7 °F 97% 30.04 in 10.0 mi Calm Calm - N/A   Clear
7:56 AM 51.3 °F 50.5 °F 97% 30.05 in 10.0 mi Calm Calm - N/A   Clear
8:15 AM 54.7 °F 54.0 °F 97% 30.05 in 10.0 mi Calm Calm - N/A   Clear
8:35 AM 57.7 °F 54.5 °F 89% 30.06 in 10.0 mi Calm Calm - N/A   Clear
8:59 AM 60.3 °F 53.6 °F 79% 30.06 in 10.0 mi Calm Calm - N/A   Clear
9:17 AM 62.4 °F 53.2 °F 72% 30.06 in 10.0 mi Calm Calm - N/A   Clear
9:35 AM 64.6 °F 52.9 °F 66% 30.06 in 10.0 mi Calm Calm - N/A   Clear
9:36 AM 64.8 °F 52.9 °F 65% 30.06 in 10.0 mi Calm Calm - N/A   Clear
9:55 AM 65.7 °F 52.0 °F 61% 30.05 in 10.0 mi ENE 3.5 mph - N/A   Clear
10:15 AM 66.4 °F 52.7 °F 61% 30.06 in 10.0 mi North 4.6 mph - N/A   Clear
10:38 AM 66.6 °F 51.8 °F 59% 30.06 in 10.0 mi North 5.8 mph - N/A   Clear
10:56 AM 67.3 °F 52.2 °F 58% 30.06 in 10.0 mi NNE 4.6 mph - N/A   Clear
11:15 AM 67.6 °F 52.2 °F 58% 30.06 in 10.0 mi Calm Calm - N/A   Scattered Clouds
11:16 AM 67.6 °F 52.0 °F 57% 30.06 in 10.0 mi NNW 3.5 mph - N/A   Scattered Clouds
11:35 AM 67.8 °F 51.8 °F 56% 30.06 in 10.0 mi NNW 4.6 mph - N/A   Scattered Clouds
11:59 AM 69.3 °F 52.7 °F 56% 30.06 in 10.0 mi North 6.9 mph - N/A   Scattered Clouds
12:17 PM 69.1 °F 52.3 °F 55% 30.07 in 10.0 mi North 5.8 mph - N/A   Scattered Clouds
12:35 PM 70.0 °F 52.3 °F 53% 30.07 in 10.0 mi NE 5.8 mph - N/A   Scattered Clouds
12:55 PM 69.1 °F 52.5 °F 55% 30.07 in 10.0 mi North 8.1 mph 18.4 mph N/A   Mostly Cloudy
1:15 PM 68.7 °F 53.2 °F 58% 30.07 in 10.0 mi North 9.2 mph - N/A   Mostly Cloudy
1:20 PM 69.4 °F 52.9 °F 56% 30.07 in 10.0 mi North 8.1 mph - N/A   Mostly Cloudy
1:38 PM 69.4 °F 52.2 °F 54% 30.07 in 10.0 mi North 8.1 mph 16.1 mph N/A   Scattered Clouds
1:56 PM 70.0 °F 52.0 °F 53% 30.07 in 10.0 mi NNW 11.5 mph 16.1 mph N/A   Scattered Clouds
2:15 PM 70.3 °F 51.1 °F 50% 30.08 in 10.0 mi North 10.4 mph - N/A   Scattered Clouds
2:35 PM 70.0 °F 48.9 °F 47% 30.08 in 10.0 mi NNW 11.5 mph - N/A   Clear
2:59 PM 69.6 °F 49.1 °F 48% 30.07 in 10.0 mi NNE 9.2 mph - N/A   Clear
3:17 PM 70.3 °F 48.2 °F 45% 30.07 in 10.0 mi North 13.8 mph 17.3 mph N/A   Clear
3:36 PM 70.2 °F 48.9 °F 47% 30.07 in 10.0 mi North 12.7 mph 18.4 mph N/A   Clear
3:55 PM 70.0 °F 47.1 °F 44% 30.08 in 10.0 mi NNE 8.1 mph 17.3 mph N/A   Clear
4:15 PM 69.8 °F 47.7 °F 45% 30.07 in 10.0 mi North 12.7 mph 17.3 mph N/A   Clear
4:38 PM 68.2 °F 48.2 °F 49% 30.07 in 10.0 mi North 9.2 mph - N/A   Mostly Cloudy
4:56 PM 68.0 °F 47.8 °F 48% 30.07 in 10.0 mi NNW 8.1 mph - N/A   Overcast
5:15 PM 67.5 °F 48.0 °F 50% 30.07 in 10.0 mi North 8.1 mph - N/A   Overcast
5:35 PM 68.4 °F 48.4 °F 49% 30.07 in 10.0 mi North 8.1 mph - N/A   Overcast
5:59 PM 68.0 °F 47.8 °F 48% 30.07 in 10.0 mi North 8.1 mph - N/A   Scattered Clouds
6:17 PM 68.0 °F 47.8 °F 48% 30.07 in 10.0 mi North 11.5 mph 16.1 mph N/A   Clear
6:35 PM 67.5 °F 47.5 °F 49% 30.07 in 10.0 mi NNW 8.1 mph - N/A   Clear
6:36 PM 67.3 °F 47.8 °F 50% 30.07 in 10.0 mi NNW 9.2 mph - N/A   Clear
6:55 PM 66.0 °F 47.3 °F 51% 30.07 in 10.0 mi NNW 9.2 mph - N/A   Clear
7:15 PM 66.0 °F 48.4 °F 53% 30.07 in 10.0 mi NNW 9.2 mph - N/A   Clear
7:38 PM 63.5 °F 49.1 °F 59% 30.08 in 10.0 mi Calm Calm - N/A   Clear
7:56 PM 62.1 °F 49.8 °F 64% 30.08 in 10.0 mi Calm Calm - N/A   Clear
8:15 PM 61.9 °F 50.2 °F 65% 30.08 in 10.0 mi Calm Calm - N/A   Scattered Clouds
8:35 PM 60.3 °F 51.3 °F 72% 30.08 in 10.0 mi Calm Calm - N/A   Overcast
8:59 PM 59.0 °F 51.8 °F 77% 30.09 in 7.0 mi Calm Calm - N/A   Overcast
9:17 PM 59.2 °F 52.0 °F 77% 30.10 in 3.0 mi Calm Calm - N/A   Haze
9:35 PM 58.5 °F 52.0 °F 79% 30.11 in 10.0 mi Calm Calm - N/A   Overcast
9:36 PM 58.5 °F 52.0 °F 79% 30.11 in 10.0 mi North 3.5 mph - N/A   Overcast
9:55 PM 59.0 °F 51.8 °F 77% 30.11 in 10.0 mi North 3.5 mph - N/A   Overcast
10:15 PM 59.9 °F 50.9 °F 72% 30.11 in 10.0 mi North 3.5 mph - N/A   Overcast
10:38 PM 59.5 °F 50.9 °F 73% 30.11 in 10.0 mi North 3.5 mph - N/A   Overcast
10:56 PM 59.9 °F 50.0 °F 70% 30.11 in 10.0 mi Calm Calm - N/A   Overcast
11:15 PM 59.0 °F 50.2 °F 73% 30.11 in 10.0 mi Calm Calm - N/A   Overcast
11:16 PM 59.2 °F 50.0 °F 72% 30.11 in 10.0 mi North 3.5 mph - N/A   Overcast
11:35 PM 58.6 °F 49.6 °F 72% 30.11 in 10.0 mi NNE 3.5 mph - N/A   Overcast
11:59 PM 58.3 °F 50.0 °F 74% 30.12 in 10.0 mi Calm Calm - N/A   Overcast